Location: *
(38.4303°S, 157.0822°W)
Time: 15:22:28
(UTC+00:00)

SL-16 R/B - Pass Details

Date: 21 May 2024
Orbit: 842 x 845 km, 71.0° (Epoch: 22 June)

Event Time Altitude Azimuth Distance (km) Brightness Sun altitude
Exits shadow 14:30:42 44° 82° (E) 1,159 3.2 -34.6°
Drops below altitude 10° 14:35:50 10° 145° (SE) 2,491 5.0 -33.6°
Sets 14:38:24 0° 150° (SSE) 3,433 5.7 -33.1°
